TC1653 SADP-SARI

Flight info

Callsign TC1653
Flight time 1h 51m
Altitude FL230
Route PAL LANDA N785 GEMSU/N0470F270 UT667 NAIDE
Aircraft B722/M-VD/C

Departure

Time 2026-04-25 13:01
Airport El Palomar Airport (SADP)

Arrival

Time 2026-04-25 14:52
Airport Cataratas Del Iguazú International Airport (SARI)
Time Latitude Longitude Altitude Speed Heading
2026-04-25 12:01 -34.60955 -58.60330 56 ft 0 kts 20°
2026-04-25 12:54 -34.60953 -58.60330 -53 ft 1 kts 10°
2026-04-25 12:54 -34.60944 -58.60332 52 ft 3 kts 335°
2026-04-25 12:55 -34.60925 -58.60368 56 ft 7 kts 271°
2026-04-25 12:55 -34.60937 -58.60409 55 ft 9 kts 233°
2026-04-25 12:55 -34.61027 -58.60473 53 ft 14 kts 200°
2026-04-25 12:55 -34.61118 -58.60515 55 ft 16 kts 202°
2026-04-25 12:56 -34.61228 -58.60571 56 ft 18 kts 203°
2026-04-25 12:56 -34.61345 -58.60629 56 ft 19 kts 202°
2026-04-25 12:56 -34.61471 -58.60691 56 ft 20 kts 200°
2026-04-25 12:56 -34.61589 -58.60726 54 ft 16 kts 180°
2026-04-25 12:57 -34.61697 -58.60717 56 ft 11 kts 175°
2026-04-25 12:57 -34.61743 -58.60717 56 ft 0 kts 186°
2026-04-25 12:59 -34.61745 -58.60717 56 ft 2 kts 186°
2026-04-25 12:59 -34.61782 -58.60729 56 ft 9 kts 207°
2026-04-25 12:59 -34.61811 -58.60805 57 ft 11 kts 285°
2026-04-25 13:00 -34.61759 -58.60860 57 ft 11 kts 331°
2026-04-25 13:00 -34.61720 -58.60884 56 ft 6 kts 336°
2026-04-25 13:00 -34.61626 -58.60932 55 ft 42 kts 338°
2026-04-25 13:00 -34.61161 -58.61171 56 ft 103 kts 337°
2026-04-25 13:01 -34.60340 -58.61595 75 ft 147 kts 335°
2026-04-25 13:01 -34.59404 -58.62102 561 ft 150 kts 333°
2026-04-25 13:01 -34.58386 -58.62532 976 ft 161 kts 342°
2026-04-25 13:01 -34.57326 -58.62924 1506 ft 162 kts 342°
2026-04-25 13:02 -34.56208 -58.63330 1884 ft 178 kts 341°
2026-04-25 13:02 -34.54941 -58.63742 2187 ft 200 kts 349°
2026-04-25 13:02 -34.53516 -58.63464 2424 ft 226 kts 31°
2026-04-25 13:02 -34.52437 -58.61923 2756 ft 263 kts 71°
2026-04-25 13:03 -34.52328 -58.59651 3495 ft 272 kts 110°
2026-04-25 13:03 -34.53357 -58.57789 4827 ft 271 kts 142°
2026-04-25 13:03 -34.55085 -58.56862 5692 ft 284 kts 173°
2026-04-25 13:03 -34.57114 -58.56912 6198 ft 303 kts 193°
2026-04-25 13:04 -34.59110 -58.57859 6692 ft 316 kts 209°
2026-04-25 13:04 -34.61026 -58.59164 7174 ft 316 kts 208°
2026-04-25 13:04 -34.62964 -58.60367 7646 ft 311 kts 213°
2026-04-25 13:04 -34.64439 -58.62205 8106 ft 304 kts 242°
2026-04-25 13:05 -34.64929 -58.64651 8587 ft 301 kts 272°
2026-04-25 13:05 -34.64312 -58.67048 9086 ft 302 kts 302°
2026-04-25 13:05 -34.62754 -58.68724 9593 ft 305 kts 332°
2026-04-25 13:05 -34.60808 -58.69691 10094 ft 300 kts 330°
2026-04-25 13:06 -34.59283 -58.71291 10558 ft 287 kts 299°
2026-04-25 13:06 -34.58724 -58.73546 11038 ft 283 kts 268°
2026-04-25 13:06 -34.59274 -58.75812 11534 ft 288 kts 238°
2026-04-25 13:06 -34.60785 -58.77428 12049 ft 300 kts 207°
2026-04-25 13:07 -34.62860 -58.77903 12582 ft 313 kts 181°
2026-04-25 13:07 -34.65050 -58.77488 13106 ft 327 kts 169°
2026-04-25 13:07 -34.67269 -58.76731 13626 ft 338 kts 167°
2026-04-25 13:07 -34.69558 -58.75917 14111 ft 348 kts 167°
2026-04-25 13:08 -34.71906 -58.75032 14574 ft 359 kts 163°
2026-04-25 13:08 -34.74232 -58.73898 15045 ft 363 kts 161°
2026-04-25 13:08 -34.76576 -58.72718 15516 ft 366 kts 162°
2026-04-25 13:08 -34.78927 -58.71526 15994 ft 369 kts 162°
2026-04-25 13:09 -34.81302 -58.70308 16475 ft 372 kts 162°
2026-04-25 13:09 -34.83682 -58.69070 16968 ft 374 kts 162°
2026-04-25 13:09 -34.86071 -58.67810 17468 ft 377 kts 162°
2026-04-25 13:09 -34.88482 -58.66529 17980 ft 379 kts 162°
2026-04-25 13:10 -34.90630 -58.65376 18416 ft 381 kts 162°
2026-04-25 13:10 -34.93036 -58.64073 18862 ft 383 kts 162°
2026-04-25 13:10 -34.95469 -58.62739 19309 ft 384 kts 162°
2026-04-25 13:10 -34.97897 -58.61390 19768 ft 385 kts 162°
2026-04-25 13:11 -35.00341 -58.60065 20232 ft 383 kts 166°
2026-04-25 13:11 -35.02878 -58.59420 20706 ft 367 kts 184°
2026-04-25 13:11 -35.05401 -58.59410 21195 ft 363 kts 191°
2026-04-25 13:11 -35.07925 -58.59614 21689 ft 363 kts 193°
2026-04-25 13:12 -35.10423 -58.59926 22195 ft 363 kts 195°
2026-04-25 13:12 -35.12922 -58.60297 22705 ft 362 kts 198°
2026-04-25 13:12 -35.15385 -58.60910 23031 ft 364 kts 202°
2026-04-25 13:12 -35.17039 -58.61400 23038 ft 373 kts 202°
2026-04-25 13:13 -35.20481 -58.62448 23050 ft 392 kts 202°
2026-04-25 13:13 -35.23159 -58.63286 23052 ft 405 kts 202°
2026-04-25 13:13 -35.25931 -58.64167 23050 ft 419 kts 202°
2026-04-25 13:13 -35.28845 -58.64855 23049 ft 437 kts 195°
2026-04-25 13:14 -35.31920 -58.65192 23054 ft 452 kts 191°
2026-04-25 13:14 -35.35045 -58.65421 23048 ft 461 kts 191°
2026-04-25 13:14 -35.38305 -58.65668 23048 ft 468 kts 191°
2026-04-25 13:14 -35.41566 -58.65924 23054 ft 474 kts 191°
2026-04-25 13:15 -35.44876 -58.66191 23059 ft 479 kts 191°
2026-04-25 13:15 -35.48193 -58.66464 23059 ft 475 kts 191°
2026-04-25 13:15 -35.51420 -58.66718 23057 ft 453 kts 191°
2026-04-25 13:15 -35.54391 -58.67354 23037 ft 418 kts 207°
2026-04-25 13:16 -35.56764 -58.69059 23055 ft 382 kts 229°
2026-04-25 13:16 -35.58242 -58.71580 23071 ft 352 kts 252°
2026-04-25 13:16 -35.58633 -58.74427 23058 ft 334 kts 275°
2026-04-25 13:16 -35.57921 -58.77057 23067 ft 327 kts 300°
2026-04-25 13:17 -35.56266 -58.78958 23073 ft 333 kts 324°
2026-04-25 13:17 -35.54005 -58.79711 23058 ft 349 kts 350°
2026-04-25 13:17 -35.51525 -58.79408 23072 ft 370 kts
2026-04-25 13:17 -35.48979 -58.78655 23042 ft 385 kts
2026-04-25 13:18 -35.46365 -58.77761 23058 ft 395 kts
2026-04-25 13:18 -35.43695 -58.76817 23049 ft 405 kts
2026-04-25 13:18 -35.40973 -58.75866 23055 ft 413 kts
2026-04-25 13:18 -35.38196 -58.74834 23051 ft 422 kts
2026-04-25 13:19 -35.35375 -58.73741 23054 ft 429 kts
2026-04-25 13:19 -35.32517 -58.72646 23050 ft 435 kts
2026-04-25 13:19 -35.29598 -58.71575 23048 ft 440 kts
2026-04-25 13:19 -35.27642 -58.70862 23048 ft 444 kts
2026-04-25 13:20 -35.23666 -58.69421 23032 ft 451 kts
2026-04-25 13:20 -35.20711 -58.68356 23031 ft 455 kts
2026-04-25 13:20 -35.17602 -58.67283 23027 ft 456 kts
2026-04-25 13:20 -35.14510 -58.66427 23031 ft 457 kts
2026-04-25 13:21 -35.11406 -58.65593 23030 ft 461 kts
2026-04-25 13:21 -35.08278 -58.64730 23034 ft 463 kts
2026-04-25 13:21 -35.05121 -58.63862 23033 ft 466 kts
2026-04-25 13:21 -35.01960 -58.62995 23033 ft 468 kts
2026-04-25 13:22 -34.98794 -58.62137 23034 ft 469 kts
2026-04-25 13:22 -34.95602 -58.61414 23034 ft 468 kts
2026-04-25 13:22 -34.92388 -58.60931 23040 ft 464 kts 358°
2026-04-25 13:23 -34.86065 -58.60106 23047 ft 467 kts 359°
2026-04-25 13:23 -34.82851 -58.59659 23043 ft 467 kts 359°
2026-04-25 13:23 -34.79661 -58.59214 23040 ft 467 kts 359°
2026-04-25 13:23 -34.76472 -58.58769 23041 ft 467 kts 359°
2026-04-25 13:24 -34.73248 -58.58319 23040 ft 467 kts 359°
2026-04-25 13:24 -34.70034 -58.57877 23039 ft 465 kts 358°
2026-04-25 13:24 -34.66845 -58.57806 23042 ft 453 kts 347°
2026-04-25 13:24 -34.63781 -58.58488 23042 ft 444 kts 339°
2026-04-25 13:25 -34.60865 -58.59581 23043 ft 439 kts 334°
2026-04-25 13:25 -34.57954 -58.60723 23038 ft 443 kts 339°
2026-04-25 13:25 -34.54897 -58.61396 23042 ft 451 kts 347°
2026-04-25 13:25 -34.51745 -58.61486 23047 ft 457 kts 353°
2026-04-25 13:26 -34.48583 -58.61453 23046 ft 457 kts 353°
2026-04-25 13:26 -34.45397 -58.61425 23045 ft 457 kts 353°
2026-04-25 13:26 -34.42239 -58.61409 23044 ft 457 kts 353°
2026-04-25 13:26 -34.39046 -58.61405 23041 ft 457 kts 353°
2026-04-25 13:27 -34.35872 -58.61409 23040 ft 457 kts 353°
2026-04-25 13:27 -34.32743 -58.61414 23043 ft 457 kts 353°
2026-04-25 13:27 -34.29559 -58.61418 23036 ft 457 kts 353°
2026-04-25 13:27 -34.26390 -58.61420 23046 ft 458 kts 353°
2026-04-25 13:28 -34.23219 -58.61420 23040 ft 458 kts 353°
2026-04-25 13:28 -34.21093 -58.61419 23028 ft 458 kts 353°
2026-04-25 13:28 -34.16934 -58.61418 23031 ft 458 kts 353°
2026-04-25 13:28 -34.13742 -58.61418 23024 ft 458 kts 353°
2026-04-25 13:29 -34.10561 -58.61418 23024 ft 458 kts 353°
2026-04-25 13:29 -34.07377 -58.61417 23029 ft 459 kts 353°
2026-04-25 13:29 -34.04194 -58.61417 23029 ft 459 kts 353°
2026-04-25 13:30 -33.97826 -58.61418 23028 ft 459 kts 353°
2026-04-25 13:30 -33.94642 -58.61418 23031 ft 459 kts 353°
2026-04-25 13:30 -33.91457 -58.61418 23027 ft 459 kts 353°
2026-04-25 13:31 -33.85073 -58.61418 23035 ft 459 kts 353°
2026-04-25 13:31 -33.81890 -58.61419 23029 ft 459 kts 353°
2026-04-25 13:31 -33.78695 -58.61419 23032 ft 459 kts 353°
2026-04-25 13:31 -33.75513 -58.61418 23032 ft 459 kts 353°
2026-04-25 13:32 -33.72324 -58.61417 23036 ft 459 kts 353°
2026-04-25 13:32 -33.69131 -58.61417 23041 ft 459 kts 353°
2026-04-25 13:32 -33.65937 -58.61417 23035 ft 459 kts 353°
2026-04-25 13:32 -33.62748 -58.61417 23039 ft 459 kts 353°
2026-04-25 13:33 -33.59564 -58.61416 23036 ft 459 kts 353°
2026-04-25 13:33 -33.56376 -58.61416 23033 ft 459 kts 353°
2026-04-25 13:33 -33.53184 -58.61416 23035 ft 459 kts 353°
2026-04-25 13:33 -33.51061 -58.61417 23032 ft 459 kts 353°
2026-04-25 13:34 -33.46804 -58.61418 23035 ft 459 kts 353°
2026-04-25 13:34 -33.43634 -58.61418 23042 ft 459 kts 353°
2026-04-25 13:34 -33.40431 -58.61418 23038 ft 459 kts 353°
2026-04-25 13:34 -33.37242 -58.61418 23041 ft 459 kts 353°
2026-04-25 13:35 -33.34055 -58.61418 23041 ft 459 kts 353°
2026-04-25 13:35 -33.30866 -58.61418 23042 ft 459 kts 353°
2026-04-25 13:35 -33.27683 -58.61418 23037 ft 459 kts 353°
2026-04-25 13:35 -33.24489 -58.61417 23036 ft 459 kts 353°
2026-04-25 13:36 -33.21299 -58.61418 23042 ft 459 kts 353°
2026-04-25 13:36 -33.18114 -58.61419 23040 ft 459 kts 353°
2026-04-25 13:36 -33.14933 -58.61465 23037 ft 457 kts 351°
2026-04-25 13:36 -33.11778 -58.61640 23040 ft 455 kts 350°
2026-04-25 13:37 -33.08625 -58.61830 23040 ft 454 kts 350°
2026-04-25 13:37 -33.05481 -58.62019 23041 ft 453 kts 351°
2026-04-25 13:37 -33.02339 -58.62202 23044 ft 453 kts 351°
2026-04-25 13:37 -32.99182 -58.62035 23042 ft 461 kts
2026-04-25 13:38 -32.96018 -58.61291 23040 ft 466 kts
2026-04-25 13:38 -32.92909 -58.60189 23040 ft 469 kts 12°
2026-04-25 13:38 -32.89822 -58.58980 23043 ft 469 kts 12°
2026-04-25 13:38 -32.86725 -58.57766 23041 ft 469 kts 12°
2026-04-25 13:39 -32.83632 -58.56554 23039 ft 468 kts 12°
2026-04-25 13:39 -32.80552 -58.55349 23041 ft 468 kts 12°
2026-04-25 13:39 -32.77450 -58.54182 23044 ft 467 kts 11°
2026-04-25 13:39 -32.74353 -58.53032 23042 ft 467 kts 11°
2026-04-25 13:40 -32.71267 -58.51886 23046 ft 467 kts 11°
2026-04-25 13:40 -32.68172 -58.50737 23055 ft 467 kts 11°
2026-04-25 13:40 -32.65075 -58.49587 23050 ft 467 kts 11°
2026-04-25 13:40 -32.61979 -58.48439 23052 ft 467 kts 11°
2026-04-25 13:41 -32.58889 -58.47293 23053 ft 467 kts 11°
2026-04-25 13:41 -32.55792 -58.46146 23053 ft 467 kts 11°
2026-04-25 13:41 -32.52697 -58.45001 23050 ft 467 kts 11°
2026-04-25 13:41 -32.49590 -58.43869 23051 ft 467 kts 10°
2026-04-25 13:42 -32.46488 -58.42760 23048 ft 467 kts 10°
2026-04-25 13:42 -32.43389 -58.41650 23048 ft 467 kts 10°
2026-04-25 13:42 -32.40289 -58.40535 23046 ft 467 kts 10°
2026-04-25 13:42 -32.37188 -58.39419 23047 ft 467 kts 10°
2026-04-25 13:43 -32.34087 -58.38309 23044 ft 467 kts 10°
2026-04-25 13:43 -32.30992 -58.37195 23046 ft 467 kts 10°
2026-04-25 13:43 -32.27890 -58.36084 23051 ft 467 kts 10°
2026-04-25 13:43 -32.24792 -58.34976 23047 ft 467 kts 10°
2026-04-25 13:44 -32.21681 -58.33862 23044 ft 467 kts
2026-04-25 13:44 -32.18578 -58.32757 23049 ft 467 kts 10°
2026-04-25 13:44 -32.15483 -58.31643 23045 ft 467 kts 10°
2026-04-25 13:44 -32.12377 -58.30527 23044 ft 467 kts 10°
2026-04-25 13:45 -32.09273 -58.29409 23059 ft 467 kts 10°
2026-04-25 13:45 -32.06163 -58.28292 23053 ft 468 kts 10°
2026-04-25 13:45 -32.03056 -58.27174 23053 ft 468 kts
2026-04-25 13:45 -31.99959 -58.26064 23052 ft 468 kts
2026-04-25 13:46 -31.96853 -58.24951 23055 ft 468 kts
2026-04-25 13:46 -31.93742 -58.23837 23056 ft 468 kts
2026-04-25 13:46 -31.90633 -58.22730 23052 ft 467 kts
2026-04-25 13:46 -31.87530 -58.21617 23049 ft 468 kts 10°
2026-04-25 13:47 -31.84429 -58.20496 23060 ft 467 kts 10°
2026-04-25 13:47 -31.81320 -58.19386 23043 ft 467 kts 10°
2026-04-25 13:47 -31.78224 -58.18278 23059 ft 467 kts
2026-04-25 13:47 -31.75119 -58.17170 23061 ft 467 kts
2026-04-25 13:48 -31.72019 -58.16062 23052 ft 467 kts
2026-04-25 13:48 -31.68922 -58.14957 23066 ft 466 kts
2026-04-25 13:48 -31.65826 -58.13853 23059 ft 466 kts
2026-04-25 13:48 -31.62721 -58.12746 23051 ft 466 kts
2026-04-25 13:49 -31.59622 -58.11641 23045 ft 466 kts
2026-04-25 13:49 -31.56527 -58.10538 23039 ft 466 kts
2026-04-25 13:49 -31.53433 -58.09435 23043 ft 466 kts
2026-04-25 13:49 -31.50341 -58.08332 23046 ft 466 kts
2026-04-25 13:50 -31.47241 -58.07227 23042 ft 466 kts
2026-04-25 13:50 -31.44150 -58.06126 23041 ft 466 kts
2026-04-25 13:50 -31.41053 -58.05022 23043 ft 466 kts
2026-04-25 13:50 -31.37967 -58.03923 23041 ft 465 kts
2026-04-25 13:51 -31.34875 -58.02822 23045 ft 465 kts 10°
2026-04-25 13:51 -31.31782 -58.01722 23045 ft 465 kts
2026-04-25 13:51 -31.28692 -58.00623 23040 ft 465 kts
2026-04-25 13:51 -31.25603 -57.99526 23042 ft 465 kts
2026-04-25 13:52 -31.22517 -57.98431 23038 ft 465 kts
2026-04-25 13:52 -31.19428 -57.97335 23043 ft 465 kts
2026-04-25 13:52 -31.16345 -57.96243 23041 ft 465 kts
2026-04-25 13:52 -31.13254 -57.95149 23041 ft 465 kts
2026-04-25 13:53 -31.10172 -57.94058 23047 ft 465 kts
2026-04-25 13:53 -31.07084 -57.92965 23050 ft 464 kts
2026-04-25 13:53 -31.04002 -57.91875 23047 ft 464 kts
2026-04-25 13:53 -31.00910 -57.90781 23048 ft 464 kts
2026-04-25 13:54 -30.97824 -57.89689 23052 ft 464 kts
2026-04-25 13:54 -30.94738 -57.88598 23047 ft 464 kts
2026-04-25 13:54 -30.91656 -57.87508 23051 ft 464 kts
2026-04-25 13:54 -30.88572 -57.86418 23049 ft 464 kts
2026-04-25 13:55 -30.85486 -57.85329 23046 ft 464 kts
2026-04-25 13:55 -30.82403 -57.84241 23047 ft 464 kts
2026-04-25 13:55 -30.79317 -57.83157 23047 ft 464 kts
2026-04-25 13:55 -30.76241 -57.82078 23047 ft 464 kts
2026-04-25 13:56 -30.73157 -57.80996 23051 ft 464 kts
2026-04-25 13:56 -30.70076 -57.79916 23048 ft 464 kts
2026-04-25 13:56 -30.66984 -57.78843 23050 ft 463 kts
2026-04-25 13:56 -30.63910 -57.77777 23053 ft 464 kts
2026-04-25 13:57 -30.60819 -57.76706 23046 ft 464 kts
2026-04-25 13:57 -30.58771 -57.75997 23044 ft 464 kts
2026-04-25 13:57 -30.54658 -57.74567 23045 ft 464 kts
2026-04-25 13:57 -30.51569 -57.73476 23047 ft 465 kts 10°
2026-04-25 13:58 -30.48487 -57.72388 23044 ft 465 kts 10°
2026-04-25 13:58 -30.45393 -57.71299 23050 ft 466 kts 10°
2026-04-25 13:58 -30.42299 -57.70211 23044 ft 466 kts
2026-04-25 13:58 -30.39188 -57.69119 23049 ft 467 kts 10°
2026-04-25 13:59 -30.36093 -57.68033 23053 ft 467 kts 10°
2026-04-25 13:59 -30.32981 -57.66941 23044 ft 468 kts 10°
2026-04-25 13:59 -30.29878 -57.65853 23044 ft 468 kts 10°
2026-04-25 13:59 -30.26798 -57.64578 23048 ft 474 kts 17°
2026-04-25 14:00 -30.23865 -57.62794 23043 ft 481 kts 25°
2026-04-25 14:00 -30.21071 -57.60635 23048 ft 486 kts 30°
2026-04-25 14:00 -30.18358 -57.58306 23048 ft 487 kts 31°
2026-04-25 14:00 -30.15672 -57.55925 23043 ft 487 kts 32°
2026-04-25 14:01 -30.12977 -57.53576 23041 ft 487 kts 30°
2026-04-25 14:01 -30.10242 -57.51307 23039 ft 485 kts 29°
2026-04-25 14:01 -30.07479 -57.49086 23043 ft 485 kts 29°
2026-04-25 14:01 -30.04713 -57.46864 23047 ft 485 kts 29°
2026-04-25 14:02 -30.01957 -57.44647 23241 ft 481 kts 29°
2026-04-25 14:02 -29.99221 -57.42445 23504 ft 481 kts 28°
2026-04-25 14:02 -29.96470 -57.40245 23744 ft 482 kts 28°
2026-04-25 14:02 -29.94621 -57.38799 23881 ft 482 kts 27°
2026-04-25 14:03 -29.90927 -57.35915 24181 ft 483 kts 27°
2026-04-25 14:03 -29.88160 -57.33757 24432 ft 482 kts 27°
2026-04-25 14:03 -29.85383 -57.31587 24699 ft 482 kts 27°
2026-04-25 14:03 -29.82627 -57.29420 24968 ft 480 kts 26°
2026-04-25 14:04 -29.79874 -57.27264 25236 ft 480 kts 26°
2026-04-25 14:04 -29.77122 -57.25108 25511 ft 479 kts 26°
2026-04-25 14:04 -29.74373 -57.22959 25789 ft 478 kts 25°
2026-04-25 14:04 -29.71622 -57.20820 26071 ft 479 kts 25°
2026-04-25 14:05 -29.68867 -57.18681 26359 ft 481 kts 25°
2026-04-25 14:05 -29.66090 -57.16529 26644 ft 483 kts 25°
2026-04-25 14:05 -29.63304 -57.14353 26936 ft 485 kts 25°
2026-04-25 14:05 -29.60503 -57.12176 27043 ft 492 kts 24°
2026-04-25 14:06 -29.57655 -57.09960 27042 ft 495 kts 25°
2026-04-25 14:06 -29.54822 -57.07745 27037 ft 494 kts 25°
2026-04-25 14:06 -29.51983 -57.05541 27043 ft 493 kts 24°
2026-04-25 14:06 -29.49145 -57.03341 27037 ft 493 kts 25°
2026-04-25 14:07 -29.46309 -57.01138 27043 ft 493 kts 25°
2026-04-25 14:07 -29.43484 -56.98937 27036 ft 493 kts 25°
2026-04-25 14:07 -29.40645 -56.96728 27037 ft 493 kts 25°
2026-04-25 14:07 -29.37822 -56.94546 27035 ft 492 kts 24°
2026-04-25 14:08 -29.34981 -56.92358 27045 ft 492 kts 24°
2026-04-25 14:08 -29.32146 -56.90178 27037 ft 492 kts 24°
2026-04-25 14:08 -29.29308 -56.87996 27033 ft 492 kts 24°
2026-04-25 14:08 -29.26473 -56.85817 27045 ft 492 kts 24°
2026-04-25 14:09 -29.23643 -56.83644 27047 ft 492 kts 25°
2026-04-25 14:09 -29.20803 -56.81463 27040 ft 492 kts 25°
2026-04-25 14:09 -29.17967 -56.79288 27039 ft 492 kts 24°
2026-04-25 14:09 -29.16073 -56.77836 27042 ft 492 kts 25°
2026-04-25 14:10 -29.12290 -56.74938 27036 ft 492 kts 25°
2026-04-25 14:10 -29.09453 -56.72767 27036 ft 492 kts 25°
2026-04-25 14:10 -29.06613 -56.70594 27038 ft 492 kts 25°
2026-04-25 14:10 -29.03779 -56.68427 27038 ft 492 kts 25°
2026-04-25 14:11 -29.00937 -56.66256 27037 ft 492 kts 25°
2026-04-25 14:11 -28.98103 -56.64092 27035 ft 492 kts 25°
2026-04-25 14:11 -28.95263 -56.61925 27034 ft 492 kts 25°
2026-04-25 14:11 -28.92420 -56.59758 27033 ft 492 kts 25°
2026-04-25 14:12 -28.89584 -56.57578 27033 ft 492 kts 25°
2026-04-25 14:12 -28.86756 -56.55409 27034 ft 492 kts 25°
2026-04-25 14:12 -28.83926 -56.53229 27032 ft 491 kts 25°
2026-04-25 14:12 -28.81092 -56.51063 27030 ft 492 kts 25°
2026-04-25 14:13 -28.78253 -56.48888 27028 ft 491 kts 25°
2026-04-25 14:13 -28.75426 -56.46726 27036 ft 491 kts 25°
2026-04-25 14:13 -28.72592 -56.44557 27032 ft 491 kts 25°
2026-04-25 14:13 -28.69763 -56.42400 27031 ft 491 kts 25°
2026-04-25 14:14 -28.66929 -56.40240 27030 ft 491 kts 25°
2026-04-25 14:14 -28.64092 -56.38079 27031 ft 491 kts 25°
2026-04-25 14:14 -28.61254 -56.35918 27034 ft 491 kts 25°
2026-04-25 14:14 -28.58426 -56.33766 27028 ft 491 kts 25°
2026-04-25 14:15 -28.55594 -56.31612 27032 ft 491 kts 25°
2026-04-25 14:15 -28.54644 -56.30889 27030 ft 491 kts 25°
2026-04-25 14:15 -28.49920 -56.27299 27027 ft 491 kts 25°
2026-04-25 14:15 -28.47089 -56.25148 27031 ft 491 kts 25°
2026-04-25 14:16 -28.44254 -56.22996 27036 ft 491 kts 25°
2026-04-25 14:16 -28.41418 -56.20844 27030 ft 491 kts 25°
2026-04-25 14:16 -28.38583 -56.18692 27032 ft 491 kts 25°
2026-04-25 14:16 -28.35747 -56.16541 27028 ft 491 kts 25°
2026-04-25 14:17 -28.32911 -56.14390 27030 ft 491 kts 25°
2026-04-25 14:17 -28.30086 -56.12248 27031 ft 491 kts 25°
2026-04-25 14:17 -28.27250 -56.10098 27028 ft 491 kts 25°
2026-04-25 14:17 -28.24418 -56.07951 27025 ft 491 kts 25°
2026-04-25 14:18 -28.21578 -56.05799 27034 ft 491 kts 25°
2026-04-25 14:18 -28.18746 -56.03652 27031 ft 491 kts 25°
2026-04-25 14:18 -28.15904 -56.01500 27029 ft 492 kts 25°
2026-04-25 14:18 -28.13073 -55.99356 27027 ft 492 kts 25°
2026-04-25 14:19 -28.10227 -55.97201 27030 ft 491 kts 25°
2026-04-25 14:19 -28.07396 -55.95062 27028 ft 491 kts 25°
2026-04-25 14:19 -28.04550 -55.92920 27034 ft 491 kts 25°
2026-04-25 14:19 -28.01713 -55.90786 27028 ft 492 kts 25°
2026-04-25 14:20 -27.98869 -55.88651 27036 ft 491 kts 25°
2026-04-25 14:20 -27.96973 -55.87237 27033 ft 491 kts 25°
2026-04-25 14:20 -27.93180 -55.84408 27030 ft 491 kts 25°
2026-04-25 14:20 -27.90329 -55.82284 27031 ft 491 kts 25°
2026-04-25 14:21 -27.87482 -55.80162 27033 ft 491 kts 25°
2026-04-25 14:21 -27.84635 -55.78043 27031 ft 491 kts 25°
2026-04-25 14:21 -27.81790 -55.75926 27030 ft 491 kts 25°
2026-04-25 14:21 -27.78940 -55.73809 27028 ft 491 kts 25°
2026-04-25 14:22 -27.76092 -55.71701 27032 ft 491 kts 25°
2026-04-25 14:22 -27.73235 -55.69587 27034 ft 491 kts 25°
2026-04-25 14:22 -27.70384 -55.67481 27015 ft 491 kts 25°
2026-04-25 14:22 -27.67532 -55.65379 27030 ft 490 kts 25°
2026-04-25 14:23 -27.64688 -55.63276 27020 ft 490 kts 25°
2026-04-25 14:23 -27.61846 -55.61175 27027 ft 490 kts 25°
2026-04-25 14:23 -27.58995 -55.59068 27025 ft 490 kts 25°
2026-04-25 14:23 -27.56151 -55.56966 27016 ft 489 kts 25°
2026-04-25 14:24 -27.53316 -55.54865 27026 ft 489 kts 25°
2026-04-25 14:24 -27.50472 -55.52759 27025 ft 489 kts 25°
2026-04-25 14:24 -27.47644 -55.50663 27027 ft 489 kts 25°
2026-04-25 14:24 -27.44813 -55.48564 27023 ft 488 kts 25°
2026-04-25 14:25 -27.41982 -55.46464 27027 ft 488 kts 25°
2026-04-25 14:25 -27.39153 -55.44367 27019 ft 488 kts 25°
2026-04-25 14:25 -27.36320 -55.42267 27017 ft 488 kts 25°
2026-04-25 14:25 -27.35382 -55.41572 27019 ft 487 kts 25°
2026-04-25 14:26 -27.30675 -55.38085 27022 ft 487 kts 25°
2026-04-25 14:26 -27.27850 -55.35994 27032 ft 487 kts 25°
2026-04-25 14:26 -27.25022 -55.33901 27026 ft 487 kts 25°
2026-04-25 14:26 -27.22208 -55.31820 27030 ft 486 kts 25°
2026-04-25 14:27 -27.19391 -55.29735 27027 ft 486 kts 25°
2026-04-25 14:27 -27.16565 -55.27644 27023 ft 486 kts 25°
2026-04-25 14:27 -27.13753 -55.25566 27021 ft 486 kts 25°
2026-04-25 14:27 -27.10941 -55.23487 27024 ft 485 kts 25°
2026-04-25 14:28 -27.08125 -55.21407 27025 ft 485 kts 25°
2026-04-25 14:28 -27.05312 -55.19328 27022 ft 485 kts 25°
2026-04-25 14:28 -27.02492 -55.17243 27026 ft 485 kts 25°
2026-04-25 14:28 -26.99685 -55.15176 27026 ft 485 kts 25°
2026-04-25 14:29 -26.96871 -55.13108 27030 ft 485 kts 25°
2026-04-25 14:29 -26.94056 -55.11043 27029 ft 484 kts 25°
2026-04-25 14:29 -26.91509 -55.09180 27027 ft 473 kts 25°
2026-04-25 14:29 -26.88847 -55.07210 26916 ft 449 kts 24°
2026-04-25 14:30 -26.86265 -55.05341 26510 ft 435 kts 24°
2026-04-25 14:30 -26.81313 -55.01765 25658 ft 415 kts 24°
2026-04-25 14:30 -26.78922 -55.00032 25233 ft 406 kts 24°
2026-04-25 14:31 -26.76574 -54.98326 24818 ft 399 kts 24°
2026-04-25 14:31 -26.74278 -54.96656 24413 ft 392 kts 24°
2026-04-25 14:31 -26.72014 -54.95010 24018 ft 385 kts 24°
2026-04-25 14:31 -26.69788 -54.93391 23624 ft 379 kts 24°
2026-04-25 14:32 -26.67600 -54.91784 23156 ft 375 kts 24°
2026-04-25 14:32 -26.65446 -54.90197 22684 ft 370 kts 25°
2026-04-25 14:32 -26.63313 -54.88639 22230 ft 364 kts 25°
2026-04-25 14:32 -26.61201 -54.87110 21771 ft 360 kts 25°
2026-04-25 14:33 -26.59113 -54.85617 21329 ft 355 kts 25°
2026-04-25 14:33 -26.57043 -54.84173 20888 ft 347 kts 20°
2026-04-25 14:33 -26.54846 -54.83302 20461 ft 327 kts
2026-04-25 14:33 -26.52638 -54.83064 20061 ft 316 kts 355°
2026-04-25 14:34 -26.50457 -54.82918 19646 ft 313 kts 356°
2026-04-25 14:34 -26.48295 -54.82757 19222 ft 311 kts 357°
2026-04-25 14:34 -26.46155 -54.82588 18812 ft 308 kts 358°
2026-04-25 14:34 -26.44032 -54.82397 18417 ft 306 kts 359°
2026-04-25 14:35 -26.41926 -54.82204 17962 ft 304 kts 359°
2026-04-25 14:35 -26.39827 -54.82008 17503 ft 302 kts 359°
2026-04-25 14:35 -26.37737 -54.81812 17047 ft 301 kts 359°
2026-04-25 14:35 -26.35662 -54.81600 16602 ft 300 kts 360°
2026-04-25 14:36 -26.33595 -54.81386 16165 ft 299 kts
2026-04-25 14:36 -26.31529 -54.81173 15737 ft 299 kts
2026-04-25 14:36 -26.29459 -54.80962 15298 ft 299 kts
2026-04-25 14:36 -26.27398 -54.80751 14880 ft 297 kts
2026-04-25 14:37 -26.23304 -54.80331 14054 ft 294 kts
2026-04-25 14:37 -26.21273 -54.80119 13625 ft 293 kts
2026-04-25 14:37 -26.19255 -54.79948 13164 ft 291 kts 359°
2026-04-25 14:38 -26.17255 -54.79602 12712 ft 293 kts 10°
2026-04-25 14:38 -26.15277 -54.79198 12251 ft 288 kts 357°
2026-04-25 14:38 -26.13280 -54.79238 11799 ft 290 kts 356°
2026-04-25 14:38 -26.11248 -54.79176 11338 ft 293 kts 358°
2026-04-25 14:39 -26.09217 -54.79090 10889 ft 293 kts 358°
2026-04-25 14:39 -26.07188 -54.79004 10449 ft 292 kts 358°
2026-04-25 14:39 -26.05170 -54.78908 10011 ft 291 kts 359°
2026-04-25 14:39 -26.03156 -54.78781 9539 ft 289 kts 359°
2026-04-25 14:40 -26.01159 -54.78655 9061 ft 288 kts 359°
2026-04-25 14:40 -25.99159 -54.78528 8584 ft 287 kts 359°
2026-04-25 14:40 -25.97174 -54.78402 8127 ft 286 kts 359°
2026-04-25 14:40 -25.95190 -54.78287 7666 ft 286 kts 359°
2026-04-25 14:41 -25.93202 -54.78185 7227 ft 289 kts 359°
2026-04-25 14:41 -25.91175 -54.78085 6814 ft 297 kts 359°
2026-04-25 14:41 -25.89081 -54.77991 6360 ft 305 kts 359°
2026-04-25 14:41 -25.86960 -54.77927 5870 ft 304 kts 358°
2026-04-25 14:42 -25.84864 -54.77857 5401 ft 300 kts 359°
2026-04-25 14:42 -25.83483 -54.77810 5097 ft 297 kts 359°
2026-04-25 14:42 -25.80761 -54.77716 4474 ft 292 kts 359°
2026-04-25 14:42 -25.78740 -54.77649 4004 ft 290 kts 359°
2026-04-25 14:43 -25.76743 -54.77583 3549 ft 287 kts 359°
2026-04-25 14:43 -25.74761 -54.77523 3091 ft 284 kts 359°
2026-04-25 14:43 -25.72837 -54.77475 2974 ft 269 kts 359°
2026-04-25 14:43 -25.71015 -54.77431 2990 ft 257 kts 360°
2026-04-25 14:44 -25.69281 -54.77315 3003 ft 242 kts
2026-04-25 14:44 -25.67677 -54.77009 2993 ft 230 kts 14°
2026-04-25 14:44 -25.66191 -54.76535 2976 ft 215 kts 14°
2026-04-25 14:44 -25.64811 -54.76058 2954 ft 203 kts 15°
2026-04-25 14:45 -25.63539 -54.75542 2925 ft 189 kts 20°
2026-04-25 14:45 -25.62373 -54.74974 2858 ft 180 kts 23°
2026-04-25 14:45 -25.61266 -54.74356 2702 ft 174 kts 25°
2026-04-25 14:45 -25.60418 -54.73426 2553 ft 178 kts 66°
2026-04-25 14:46 -25.60339 -54.72068 2409 ft 182 kts 106°
2026-04-25 14:46 -25.60899 -54.70853 2230 ft 175 kts 125°
2026-04-25 14:46 -25.61583 -54.69785 2112 ft 167 kts 130°
2026-04-25 14:46 -25.62290 -54.68800 2010 ft 159 kts 130°
2026-04-25 14:47 -25.62967 -54.67851 1858 ft 159 kts 128°
2026-04-25 14:47 -25.63369 -54.67171 1754 ft 155 kts 121°
2026-04-25 14:47 -25.63998 -54.65805 1711 ft 151 kts 122°
2026-04-25 14:47 -25.64524 -54.64765 1746 ft 156 kts 121°
2026-04-25 14:48 -25.65054 -54.63739 1724 ft 153 kts 122°
2026-04-25 14:48 -25.65596 -54.62718 1716 ft 155 kts 122°
2026-04-25 14:48 -25.66148 -54.61689 1696 ft 158 kts 123°
2026-04-25 14:48 -25.66710 -54.60656 1693 ft 156 kts 122°
2026-04-25 14:49 -25.67295 -54.59637 1678 ft 156 kts 128°
2026-04-25 14:49 -25.67929 -54.58698 1720 ft 152 kts 130°
2026-04-25 14:49 -25.68564 -54.57761 1708 ft 152 kts 126°
2026-04-25 14:49 -25.69072 -54.56737 1699 ft 152 kts 116°
2026-04-25 14:50 -25.69507 -54.55673 1801 ft 149 kts 117°
2026-04-25 14:50 -25.70000 -54.54672 2014 ft 152 kts 123°
2026-04-25 14:50 -25.70596 -54.53658 1964 ft 152 kts 128°
2026-04-25 14:50 -25.71231 -54.52734 1678 ft 153 kts 130°
2026-04-25 14:51 -25.71862 -54.51770 1503 ft 157 kts 121°
2026-04-25 14:51 -25.72336 -54.50693 1374 ft 153 kts 113°
2026-04-25 14:51 -25.72770 -54.49635 1161 ft 148 kts 112°
2026-04-25 14:51 -25.73188 -54.48632 975 ft 139 kts 113°
2026-04-25 14:52 -25.73575 -54.47705 934 ft 119 kts 115°
2026-04-25 14:52 -25.73831 -54.47096 934 ft 54 kts 114°
2026-04-25 14:52 -25.73883 -54.46918 932 ft 12 kts 100°
2026-04-25 14:52 -25.73902 -54.46860 932 ft 10 kts 138°
2026-04-25 14:53 -25.73935 -54.46876 931 ft 4 kts 279°
2026-04-25 14:53 -25.73919 -54.46904 932 ft 6 kts 306°
2026-04-25 14:53 -25.73894 -54.46948 934 ft 8 kts 300°
2026-04-25 14:53 -25.73866 -54.47009 936 ft 10 kts 293°
2026-04-25 14:54 -25.73834 -54.47089 932 ft 13 kts 294°
2026-04-25 14:54 -25.73789 -54.47190 931 ft 16 kts 302°
2026-04-25 14:54 -25.73701 -54.47278 931 ft 18 kts 333°
2026-04-25 14:54 -25.73611 -54.47361 932 ft 18 kts 315°
2026-04-25 14:55 -25.73546 -54.47414 930 ft 12 kts 325°
2026-04-25 14:55 -25.73474 -54.47472 932 ft 14 kts 323°
2026-04-25 14:55 -25.73389 -54.47541 932 ft 16 kts 324°
2026-04-25 14:55 -25.73303 -54.47627 931 ft 17 kts 304°
2026-04-25 14:56 -25.73256 -54.47727 930 ft 12 kts 296°
2026-04-25 14:56 -25.73226 -54.47759 933 ft 4 kts 355°
2026-04-25 14:56 -25.73199 -54.47755 931 ft 3 kts 16°
2026-04-25 14:56 -25.73196 -54.47753 930 ft 0 kts 22°